Track CARTOSAT-1 now! 10-day predictions CARTOSAT-1 is classified as:
1 28649U 05017A 22143.87898060 .00001394 00000-0 17321-3 0 9994 2 28649 97.7203 205.0654 0000510 23.6070 336.5168 14.84112182923115